www.pogodaiklimat.ru

Погода и климат >> Архив погоды >> Россия >> Камчатский край >> Озерная


ПОГОДА в Озерной

  • Прогноз погоды в Озерной
  • Монитор погоды в Озерной
  • Климат города

АРХИВ ПОГОДЫ в Озерной

Время (UTC), дата Ветер
(напр.,м/с)
 
Видим.   Явления Облачность Т
(С)
Тd
(С)
f
(%)
Тe
(С)
Тes
(С)
Комфортность P
(гПа)
Po
(гПа)
Тmin
(С)
Tmax
(С)
R
(мм)
R24
(мм)
S
(см)
18 11.12 З 13-18
{23}
4000 м слабый ливневой снег {метель} 9/9 300 м
[Cb cap]
-2.5 -6.6 73 -12 -12 1010.4 1006.7
21 11.12 З 14-17
{22}
10 км в посл. час крупа {ливн. осадки, метель} 9/8 600 м
[Cb calv Ci fib]
-3.3 -6.7 77 -14 -14 1011.9 1008.2 -6.2 1 5
00 12.12 З 12-17
{21}
4000 м слабый ливневой снег {метель} 9/9 300 м
[Cb cap]
-3.7 -4.7 93 -14 -14 1012.9 1009.3
03 12.12 СЗ 9-14
{19}
10 км в посл. час ливневой снег {метель} 9/9 600 м
[Cb calv]
-3.8 -4.9 92 -13 -13 1013.5 1009.8
06 12.12 З 12-15
{16}
20 км {ливн. осадки, метель} 9/9 600 м
[Cb calv]
-2.8 -7.9 68 -12 -12 1014.4 1010.8
09 12.12 ЮЗ 5-12
{16}
4000 м слабый ливневой снег {метель} 9/9 200 м
[Cb cap]
-5.1 -7.0 86 -12 -12 1015.6 1011.9 -2.6 2
12 12.12 З 6
{13}
20 км {ливн. осадки, метель} 6/6 600 м
[Sc diur, vesp]
-3.1 -11.3 53 -10 -10 1015.6 1011.9
15 12.12 З 4
{13}
20 км {ливн. осадки} 3/3 600 м
[Cb calv]
-3.2 -12.9 47 -9 -9 1014.1 1010.4
18 12.12 В 3 20 км {ливн. осадки} 4/4 1000 м
[Sc]
-7.6 -12.4 68 -13 -13 1012.5 1008.8
21 12.12 В 3 10 км слабый ливневой снег 9/4 300 м
[Cb cap Ci fib]
-10.3 -13.0 81 -16 -16 1012.2 1008.5 -10.3 0.6 4
00 13.12 В 3 50 км {ливн. осадки} 6/3 1000 м
[Sc Ci fib]
-11.5 -15.0 75 -17 -17 1010.7 1007.0 -12.2
03 13.12 В 4 10 км слабый ливневой снег 9/9 300 м
[Cb cap]
-8.0 -11.2 78 -15 -15 1007.9 1004.2
06 13.12 В 4 20 км в посл. час ливневой снег 9/6 600 м
[Cb calv Ci fib]
-6.9 -8.8 86 -14 -14 1006.9 1003.3
09 13.12 В 2
{12}
4000 м слабый ливневой снег 10/10 200 м
[Cb cap]
-6.4 -7.4 93 -11 -11 1006.9 1003.2 -5.0 0.4
12 13.12 СЗ 11-14
{19}
4000 м слабый ливневой снег {метель} 10/10 300 м
[Cb cap]
-2.9 -9.2 62 -12 -12 1006.2 1002.6
15 13.12 С 5
{18}
4000 м слабый ливневой снег {метель} 10/10 300 м
[Cb calv]
-5.7 -6.6 93 -13 -13 1007.0 1003.3
18 13.12 С 4
{17}
4000 м слабый ливневой снег {метель} 10/10 200 м
[Cb cap]
-7.2 -8.2 93 -14 -14 1007.9 1004.3
21 13.12 В 2 10 км слабый ливневой снег 9/9 300 м
[Cb cap]
-7.8 -8.9 92 -12 -12 1008.4 1004.8 -8.9 3 6
00 14.12 В 3 4000 м слабый ливневой снег 9/5 300 м
[Cb cap Ci fib]
-6.8 -7.5 95 -13 -12 1008.6 1005.0
03 14.12 З 9-13
{19}
4000 м слабый ливневой снег {метель} 9/9 300 м
[Cb cap]
-4.1 -6.0 87 -13 -13 1007.3 1003.7
06 14.12 З 8-10
{20}
10 км в посл. час ливневой снег {метель} 9/9 600 м
[Cb calv]
-3.9 -6.0 85 -12 -12 1007.5 1003.8
09 14.12 З 10-13
{15}
10 км позёмок {ливн. осадки, метель} 3/3 600 м
[Sc]
-3.3 -7.5 73 -12 -12 1007.7 1004.1 -2.8 2
12 14.12 З 10-12
{15}
10 км позёмок {ливн. осадки, метель} 3/0
[Ci fib]
-2.9 -7.6 70 -12 -12 1007.7 1004.1
15 14.12 З 8-13
{13}
10 км позёмок {метель} 3/3 600 м
[Sc]
-3.6 -5.8 85 -12 -12 1007.7 1004.1
18 14.12 СЗ 8-12
{17}
10 км позёмок {ливн. осадки, метель} 3/3 600 м
[Cb calv]
-3.1 -5.5 83 -11 -11 1007.4 1003.8
21 14.12 СЗ 10-12
{16}
20 км в посл. час ливневой снег {метель} 8/8 600 м
[Cb calv]
-2.8 -7.2 72 -12 -12 1007.0 1003.4 -4.5 0.8 5
00 15.12 СВ 2
{15}
2000 м слабый ливневой снег {метель} 10/10 100 м
[Cb cap]
-5.6 -6.7 92 -10 -10 1007.8 1004.1 -5.9
03 15.12 С 1 1000 м ливневой снег 10/10 1000 м
[Cb cap]
-5.7 -6.9 91 -8 -8 1006.8 1003.2
06 15.12 С 1 2000 м слабый ливневой снег 10/10 200 м
[Cb cap]
-6.9 -7.8 93 -9 -9 1006.6 1003.0
09 15.12 В 4 20 км {ливн. осадки} 6/6 600 м
[Cb calv]
-9.2 -10.4 91 -16 -16 1006.8 1003.1 -2.6 4
12 15.12 В 4 20 км {ливн. осадки} 8/8 600 м
[Sc]
-12.0 -14.3 83 -19 -19 1006.7 1003.0
15 15.12 В 4 4000 м слабый ливневой снег 10/10 300 м
[Cb cap]
-14.7 -16.1 89 -22 -22 1006.2 1002.4
18 15.12 В 3 10 км {ливн. осадки} 9/9 600 м
[Cb calv]
-13.3 -14.6 90 -20 -20 1005.9 1002.2
21 15.12 В 3
{13}
10 км {ливн. осадки} 8/8 600 м
[Cb calv]
-12.1 -13.8 87 -18 -18 1006.3 1002.6 -16.3 0.6 9
00 16.12 В 2 20 км в посл. час ливневой снег {метель} 8/8 600 м
[Cb calv]
-8.1 -9.5 90 -13 -12 1007.2 1003.5
03 16.12 С 3 50 км 3/1 1000 м
[Sc Ci fib]
-7.4 -13.4 62 -13 -12 1007.5 1003.8
06 16.12 В 4 50 км 4/3 600 м
[Sc Ci fib]
-8.8 -13.7 68 -16 -16 1008.9 1005.2
09 16.12 В 3 20 км 3/3 600 м
[Sc]
-10.2 -13.2 79 -16 -16 1009.7 1006.0 -7.0 0.8
12 16.12 В 4 20 км 3/3 600 м
[Sc]
-11.5 -13.8 83 -19 -19 1010.5 1006.7
15 16.12 В 4 20 км {ливн. осадки} 1/0
[Ci fib]
-10.9 -12.2 90 -18 -18 1010.6 1006.9
18 16.12 В 3 20 км {ливн. осадки} 4/4 600 м
[Sc]
-8.3 -9.3 92 -14 -14 1011.2 1007.5
21 16.12 В 4 50 км в посл. час ливневой снег 8/3 600 м
[Cb calv Ci fib]
-11.5 -12.8 90 -19 -19 1011.9 1008.2 -13.1 0.4 10
00 17.12 В 4 50 км {ливн. осадки} 3/3 1000 м
[Sc]
-10.4 -11.5 92 -17 -17 1012.4 1008.6 -13.1
03 17.12 В 3 50 км 6/3 600 м
[Sc Ci fib]
-7.0 -10.5 76 -13 -12 1011.1 1007.4
06 17.12 В 6 50 км 4/3 600 м
[Sc Ci fib]
-4.3 -10.4 62 -12 -12 1009.9 1006.2
09 17.12 В 8-11
{11}
20 км 9/9 600 м
[Sc]
-1.9 -5.3 78 -10 -10 1007.1 1003.5 -1.8
12 17.12 В 8-12
{19}
10 км слабый ливневой снег {метель} 10/10 300 м
[Cb cap]
-0.5 -3.9 78 -8 -8 1004.2 1000.6
15 17.12 В 14-20
{20}
4000 м слабый ливневой снег {метель} 10/10 300 м
[Cb cap]
+1.2 -0.9 86 -8 -8 999.0 995.5
18 17.12 В 16-23
{24}
4000 м слабый ливневой снег {метель} 10/10 300 м
[Cb cap]
+1.1 -0.6 88 -8 -8 994.5 991.0
21 17.12 В 9-13
{24}
20 км {ливн. осадки, метель} 9/9 600 м
[Cb calv]
+1.9 -0.9 82 -5 -5 991.0 987.5 -1.8 0.8 10
00 18.12 В 5
{17}
10 км {ливн. осадки, метель} 10/10 600 м
[Cb calv]
+2.4 -0.7 80 -3 -3 986.4 982.9
03 18.12 Ю 2
{11}
2000 м слабый ливневой снег 10/10 300 м
[Cb cap]
+0.7 -0.6 91 -3 -3 981.6 978.1
06 18.12 З 18-22
{22}
2000 м слабый ливневой снег {метель} 10/10 300 м
[Cb cap]
-1.2 -1.6 97 -12 -12 981.3 977.8
09 18.12 З 16-21
{22}
4000 м слабый ливневой снег {метель} 9/9 300 м
[Cb cap]
-2.4 -3.9 89 -13 -13 982.4 978.9 +2.8 4
12 18.12 З 15-21
{22}
4000 м слабый ливневой снег {метель} 9/9 300 м
[Cb cap]
-2.7 -5.7 80 -13 -13 984.6 981.1

 

Местоположение метеостанции Озерная (Камчатский край, Россия): широта 51.48 долгота 156.40 высота над уровнем моря 28 м.

В архиве по умолчанию представлена погода в Озерной за последнюю неделю. Архивные данные за месяц целиком и за предыдущие месяцы, начиная с января 2011 года, Вы можете получить, выбрав интересующий диапазон дат из раскрывающегося списка и нажав кнопку "Ввод!".


*Определитесь, кто Вы:
робот инопланетянин человек

Внимание! Время в таблицах - всемирное. Для получения местного времени необходимо прибавить поправку, которая в Озерной равна 12 ч.

Смотрите также архив погоды в соседних городах и на ближайших метеорологических станциях:

Погода на Мысе Лопатка (Камчатский край, Россия) (69 км)
Погода в Северо-Курильске (Сахалинская область, Россия) (91 км)
Погода в Водопадной (Камчатский край, Россия) (117 км)
Погода в Большерецке (Камчатский край, Россия) (150 км)
Погода в Начиках (Камчатский край, Россия) (203 км)
Погода в Петропавловск-Камчатском (Камчатский край, Россия) (215 км)
Погода в Сосновке (Камчатский край, Россия) (220 км)
Погода в Петропавловском Маяке (Камчатский край, Россия) (221 км)
Погода в Петропавловск-Камч. 2 (Камчатский край, Россия) (228 км)
Погода в Соболево (Камчатский край, Россия) (315 км)

Пояснения к столбцам:

Ветер - указаны скорость ветра в м/с - средняя за 10 мин, порывы в срок и между сроками (в фигурных скобках) и направление, откуда дует ветер: С - северный, СВ - северо-восточный, В - восточный, ЮВ - юго-восточный, Ю - южный, ЮЗ - юго-западный, З - западный, СЗ - северо-западный.
Видимость - горизонтальная дальность видимости в метрах или километрах. При видимости от 1 до 10 км при отсутствии осадков обычно наблюдается дымка, при ухудшении видимости до 1 км и менее - туман. В сухую погоду видимость может ухудшаться дымом, пылью или мглою.
Явления - указаны атмосферные явления, наблюдавшиеся в срок или в последний час перед сроком; фигурными скобками обозначены явления, наблюдавшиеся между сроками (за 1-3 часа до срока); квадратными скобками обозначены град или гололедные отложения с указанием их диаметра в мм.
Облачность - указаны через наклонную черту общая и нижняя облачность в баллах и высота нижней границы облаков в метрах; квадратными скобками обозначены формы облаков: Ci - перистые, Cs - перисто-слоистые, Cc - перисто-кучевые, Ac - высококучевые, As - высокослоистые, Sc - слоисто-кучевые, Ns - слоисто-дождевые, Cu - кучевые, Cb - кучево-дождевые. Подробнее классификацию облаков см. в Атласе облаков (PDF).
T - Температура воздуха - температура, измеренная на высоте 2 м над землей.
Td - Температура точки росы - температура, при понижении до которой содержащийся в воздухе водяной пар достигнет насыщения.
f - Относительная влажность воздуха - влажноcть воздуха, измеренная на высоте 2 м над землей.
Te - Эффективная температура - температура, которую ощущает одетый по сезону человек в тени. Характеристика душности погоды. При расчете учитывается влияние влажности воздуха и скорости ветра на теплоощущения человека.
Tes - Эффективная температура на солнце - температура, которую ощущает человек, с поправкой на солнечный нагрев. Характеристика знойности погоды. Зависит от высоты солнца над горизонтом, облачности и скорости ветра. Ночью, в пасмурную погоду, а также при ветре 12 м/с и более поправка равна нулю.
P - Атмосферное давление - приведенное к уровню моря атмосферное давление.
Po - Атмосферное давление - измеренное на уровне метеостанции атмосферное давление.
Tmin - Минимальная температура - минимум температуры воздуха на высоте 2 м над землей.
Tmax - Максимальная температура - максимум температуры воздуха на высоте 2 м над землей.
R - Количество осадков - Количество выпавших осадков за период времени, мм. При наведении курсора мыши на число - период времени, за который выпало указанное количество осадков.
R24 - Количество осадков - Количество выпавших осадков за 24 часа, мм.
S - Снежный покров - Высота снежного покрова, см. При наведении курсора мыши на число - состояние снежного покрова и степень покрытия местности в баллах.